����������;��������(kWh)
2016-03-28 00:00;82,15
2016-03-28 00:15;83,8
2016-03-28 00:30;84,7
2016-03-28 00:45;83,45
2016-03-28 01:00;85,3
2016-03-28 01:15;86,8
2016-03-28 01:30;87,7
2016-03-28 01:45;109,45
2016-03-28 02:00;117,85
2016-03-28 02:15;114,4
2016-03-28 02:30;95,55
2016-03-28 02:45;87,4
2016-03-28 03:00;85,3
2016-03-28 03:15;84,7
2016-03-28 03:30;85,65
2016-03-28 03:45;84,7
2016-03-28 04:00;89,15
2016-03-28 04:15;86,35
2016-03-28 04:30;86,05
2016-03-28 04:45;89,9
2016-03-28 05:00;88,75
2016-03-28 05:15;85,2
2016-03-28 05:30;90
2016-03-28 05:45;87,3
2016-03-28 06:00;87,55
2016-03-28 06:15;89,45
2016-03-28 06:30;98,2
2016-03-28 06:45;88,95
2016-03-28 07:00;92,35
2016-03-28 07:15;94,15
2016-03-28 07:30;91,75
2016-03-28 07:45;97,4
2016-03-28 08:00;101,5
2016-03-28 08:15;106,55
2016-03-28 08:30;117,35
2016-03-28 08:45;126,45
2016-03-28 09:00;131,75
2016-03-28 09:15;151,6
2016-03-28 09:30;163,8
2016-03-28 09:45;171,7
2016-03-28 10:00;176,1
2016-03-28 10:15;190,7
2016-03-28 10:30;191,15
2016-03-28 10:45;189,8
2016-03-28 11:00;191,65
2016-03-28 11:15;187,15
2016-03-28 11:30;188,3
2016-03-28 11:45;188,35
2016-03-28 12:00;199,55
2016-03-28 12:15;193,45
2016-03-28 12:30;194,6
2016-03-28 12:45;200,9
2016-03-28 13:00;195,65
2016-03-28 13:15;195,7
2016-03-28 13:30;204,45
2016-03-28 13:45;204,15
2016-03-28 14:00;191,95
2016-03-28 14:15;190,5
2016-03-28 14:30;187,3
2016-03-28 14:45;186,4
2016-03-28 15:00;186,8
2016-03-28 15:15;180,2
2016-03-28 15:30;175,75
2016-03-28 15:45;168,55
2016-03-28 16:00;163,55
2016-03-28 16:15;161,05
2016-03-28 16:30;158,8
2016-03-28 16:45;159,2
2016-03-28 17:00;161,5
2016-03-28 17:15;160,55
2016-03-28 17:30;155,85
2016-03-28 17:45;154,7
2016-03-28 18:00;153,35
2016-03-28 18:15;145,4
2016-03-28 18:30;140,85
2016-03-28 18:45;143,55
2016-03-28 19:00;142,15
2016-03-28 19:15;136,65
2016-03-28 19:30;131,25
2016-03-28 19:45;132,25
2016-03-28 20:00;134,85
2016-03-28 20:15;119,3
2016-03-28 20:30;119,6
2016-03-28 20:45;120,7
2016-03-28 21:00;120,8
2016-03-28 21:15;120,3
2016-03-28 21:30;120,1
2016-03-28 21:45;119,9
2016-03-28 22:00;112,2
2016-03-28 22:15;112,35
2016-03-28 22:30;110,35
2016-03-28 22:45;107,3
2016-03-28 23:00;105,2
2016-03-28 23:15;101,6
2016-03-28 23:30;92,6
2016-03-28 23:45;92,5
2016-03-29 00:00;92,7
2016-03-29 00:15;84,8
2016-03-29 00:30;84,5
2016-03-29 00:45;84,45
2016-03-29 01:00;84,85
2016-03-29 01:15;83,45
2016-03-29 01:30;83,35
2016-03-29 01:45;83,15
2016-03-29 02:00;84,3
2016-03-29 02:15;109,6
2016-03-29 02:30;109
2016-03-29 02:45;99,2
2016-03-29 03:00;93,65
2016-03-29 03:15;90,2
2016-03-29 03:30;91,3
2016-03-29 03:45;91,5
2016-03-29 04:00;94,35
2016-03-29 04:15;91,1
2016-03-29 04:30;94,75
2016-03-29 04:45;94,3
2016-03-29 05:00;95,45
2016-03-29 05:15;89,45
2016-03-29 05:30;98,55
2016-03-29 05:45;95,4
2016-03-29 06:00;96,3
2016-03-29 06:15;99,8
2016-03-29 06:30;102,05
2016-03-29 06:45;97,5
2016-03-29 07:00;97,1
2016-03-29 07:15;115,85
2016-03-29 07:30;116,5
2016-03-29 07:45;117,75
2016-03-29 08:00;114,7
2016-03-29 08:15;107,8
2016-03-29 08:30;114,25
2016-03-29 08:45;121,6
2016-03-29 09:00;126,25
2016-03-29 09:15;144,6
2016-03-29 09:30;151,05
2016-03-29 09:45;149,4
2016-03-29 10:00;151,6
2016-03-29 10:15;161,9
2016-03-29 10:30;173,75
2016-03-29 10:45;175,3
2016-03-29 11:00;177,1
2016-03-29 11:15;169,95
2016-03-29 11:30;169,45
2016-03-29 11:45;168,8
2016-03-29 12:00;160
2016-03-29 12:15;162,6
2016-03-29 12:30;166,25
2016-03-29 12:45;167,85
2016-03-29 13:00;170,1
2016-03-29 13:15;174,35
2016-03-29 13:30;173,35
2016-03-29 13:45;171,5
2016-03-29 14:00;167,2
2016-03-29 14:15;165,65
2016-03-29 14:30;163,05
2016-03-29 14:45;159,9
2016-03-29 15:00;163,4
2016-03-29 15:15;160,05
2016-03-29 15:30;157,7
2016-03-29 15:45;154,05
2016-03-29 16:00;144,9
2016-03-29 16:15;148,5
2016-03-29 16:30;147,8
2016-03-29 16:45;142,25
2016-03-29 17:00;137,9
2016-03-29 17:15;139,15
2016-03-29 17:30;139,55
2016-03-29 17:45;147,85
2016-03-29 18:00;151,1
2016-03-29 18:15;153,35
2016-03-29 18:30;143,65
2016-03-29 18:45;139,2
2016-03-29 19:00;139,8
2016-03-29 19:15;135,85
2016-03-29 19:30;134,45
2016-03-29 19:45;132,5
2016-03-29 20:00;131,5
2016-03-29 20:15;119,8
2016-03-29 20:30;119,1
2016-03-29 20:45;114,65
2016-03-29 21:00;118,7
2016-03-29 21:15;110,15
2016-03-29 21:30;106,05
2016-03-29 21:45;102,5
2016-03-29 22:00;96,35
2016-03-29 22:15;90,75
2016-03-29 22:30;89,1
2016-03-29 22:45;88,05
2016-03-29 23:00;86,1
2016-03-29 23:15;85,65
2016-03-29 23:30;84,75
2016-03-29 23:45;82,4
2016-03-30 00:00;79,95
2016-03-30 00:15;81,75
2016-03-30 00:30;86,3
2016-03-30 00:45;86,15
2016-03-30 01:00;87,6
2016-03-30 01:15;87,65
2016-03-30 01:30;87,65
2016-03-30 01:45;86,8
2016-03-30 02:00;88,25
2016-03-30 02:15;81,75
2016-03-30 02:30;81,05
2016-03-30 02:45;79,7
2016-03-30 03:00;81,7
2016-03-30 03:15;81,45
2016-03-30 03:30;79,1
2016-03-30 03:45;77,75
2016-03-30 04:00;82,4
2016-03-30 04:15;78,75
2016-03-30 04:30;79,95
2016-03-30 04:45;82,2
2016-03-30 05:00;80,95
2016-03-30 05:15;77,5
2016-03-30 05:30;92,45
2016-03-30 05:45;108,75
2016-03-30 06:00;104,65
2016-03-30 06:15;106,1
2016-03-30 06:30;113,3
2016-03-30 06:45;106,7
2016-03-30 07:00;94,15
2016-03-30 07:15;96
2016-03-30 07:30;94,55
2016-03-30 07:45;109,4
2016-03-30 08:00;113,05
2016-03-30 08:15;115,55
2016-03-30 08:30;120
2016-03-30 08:45;120,55
2016-03-30 09:00;130,1
2016-03-30 09:15;142,4
2016-03-30 09:30;165,5
2016-03-30 09:45;204,15
2016-03-30 10:00;215
2016-03-30 10:15;188,4
2016-03-30 10:30;169,2
2016-03-30 10:45;172,65
2016-03-30 11:00;163,4
2016-03-30 11:15;162,9
2016-03-30 11:30;167,55
2016-03-30 11:45;163,5
2016-03-30 12:00;164,65
2016-03-30 12:15;163,75
2016-03-30 12:30;169,25
2016-03-30 12:45;168
2016-03-30 13:00;173,5
2016-03-30 13:15;176,8
2016-03-30 13:30;170,35
2016-03-30 13:45;169,6
2016-03-30 14:00;156,9
2016-03-30 14:15;151,9
2016-03-30 14:30;151,85
2016-03-30 14:45;152,25
2016-03-30 15:00;150,9
2016-03-30 15:15;149,95
2016-03-30 15:30;142,9
2016-03-30 15:45;141,05
2016-03-30 16:00;140,95
2016-03-30 16:15;143,5
2016-03-30 16:30;143,45
2016-03-30 16:45;143,8
2016-03-30 17:00;135,2
2016-03-30 17:15;135,5
2016-03-30 17:30;134,5
2016-03-30 17:45;133,9
2016-03-30 18:00;130,75
2016-03-30 18:15;129,3
2016-03-30 18:30;127,45
2016-03-30 18:45;137,1
2016-03-30 19:00;128,4
2016-03-30 19:15;121,8
2016-03-30 19:30;121,1
2016-03-30 19:45;119,6
2016-03-30 20:00;126,7
2016-03-30 20:15;121
2016-03-30 20:30;115,15
2016-03-30 20:45;116,85
2016-03-30 21:00;116,3
2016-03-30 21:15;109,5
2016-03-30 21:30;110,8
2016-03-30 21:45;112,3
2016-03-30 22:00;105,1
2016-03-30 22:15;97,5
2016-03-30 22:30;96,75
2016-03-30 22:45;91,85
2016-03-30 23:00;85,75
2016-03-30 23:15;81,2
2016-03-30 23:30;77,1
2016-03-30 23:45;77,85
2016-03-31 00:00;79,65
2016-03-31 00:15;78,55
2016-03-31 00:30;78,85
2016-03-31 00:45;78,25
2016-03-31 01:00;78,3
2016-03-31 01:15;76,5
2016-03-31 01:30;76,35
2016-03-31 01:45;76,85
2016-03-31 02:00;76,85
2016-03-31 02:15;77,25
2016-03-31 02:30;75,6
2016-03-31 02:45;75,5
2016-03-31 03:00;75,4
2016-03-31 03:15;77
2016-03-31 03:30;80,75
2016-03-31 03:45;81,3
2016-03-31 04:00;86,05
2016-03-31 04:15;83
2016-03-31 04:30;83
2016-03-31 04:45;79,95
2016-03-31 05:00;78,75
2016-03-31 05:15;76,45
2016-03-31 05:30;79,2
2016-03-31 05:45;76,95
2016-03-31 06:00;85,45
2016-03-31 06:15;116,45
2016-03-31 06:30;118,75
2016-03-31 06:45;106,6
2016-03-31 07:00;92
2016-03-31 07:15;93,55
2016-03-31 07:30;90,75
2016-03-31 07:45;103,9
2016-03-31 08:00;160,35
2016-03-31 08:15;176,8
2016-03-31 08:30;151,55
2016-03-31 08:45;132,05
2016-03-31 09:00;138
2016-03-31 09:15;140,95
2016-03-31 09:30;152,45
2016-03-31 09:45;152,15
2016-03-31 10:00;160,25
2016-03-31 10:15;155,9
2016-03-31 10:30;171,7
2016-03-31 10:45;159,15
2016-03-31 11:00;150,95
2016-03-31 11:15;156,6
2016-03-31 11:30;152,15
2016-03-31 11:45;146,5
2016-03-31 12:00;145,5
2016-03-31 12:15;147,8
2016-03-31 12:30;148,1
2016-03-31 12:45;151,15
2016-03-31 13:00;156,55
2016-03-31 13:15;153,85
2016-03-31 13:30;159,8
2016-03-31 13:45;156,35
2016-03-31 14:00;153,5
2016-03-31 14:15;154,4
2016-03-31 14:30;159,05
2016-03-31 14:45;155,4
2016-03-31 15:00;151,75
2016-03-31 15:15;150,4
2016-03-31 15:30;145,75
2016-03-31 15:45;143,85
2016-03-31 16:00;140,85
2016-03-31 16:15;140,3
2016-03-31 16:30;135,4
2016-03-31 16:45;137,35
2016-03-31 17:00;135,05
2016-03-31 17:15;129,1
2016-03-31 17:30;131,85
2016-03-31 17:45;127,4
2016-03-31 18:00;125,05
2016-03-31 18:15;119,9
2016-03-31 18:30;119,25
2016-03-31 18:45;118,25
2016-03-31 19:00;121,7
2016-03-31 19:15;122,45
2016-03-31 19:30;124,75
2016-03-31 19:45;124,5
2016-03-31 20:00;119,1
2016-03-31 20:15;120,25
2016-03-31 20:30;115,95
2016-03-31 20:45;116,05
2016-03-31 21:00;114,55
2016-03-31 21:15;110,85
2016-03-31 21:30;111,65
2016-03-31 21:45;104,95
2016-03-31 22:00;103,2
2016-03-31 22:15;103,35
2016-03-31 22:30;101,1
2016-03-31 22:45;91,05
2016-03-31 23:00;89,9
2016-03-31 23:15;86,85
2016-03-31 23:30;85,85
2016-03-31 23:45;85,2
2016-04-01 00:00;81,9
2016-04-01 00:15;84,8
2016-04-01 00:30;85,65
2016-04-01 00:45;84,5
2016-04-01 01:00;85,35
2016-04-01 01:15;84,35
2016-04-01 01:30;83
2016-04-01 01:45;87,25
2016-04-01 02:00;84,45
2016-04-01 02:15;81,4
2016-04-01 02:30;81
2016-04-01 02:45;80,7
2016-04-01 03:00;75,55
2016-04-01 03:15;71,75
2016-04-01 03:30;72,1
2016-04-01 03:45;73,05
2016-04-01 04:00;78,65
2016-04-01 04:15;74,3
2016-04-01 04:30;75
2016-04-01 04:45;77,4
2016-04-01 05:00;76,7
2016-04-01 05:15;74,3
2016-04-01 05:30;77,7
2016-04-01 05:45;74,85
2016-04-01 06:00;77,95
2016-04-01 06:15;86,45
2016-04-01 06:30;100,15
2016-04-01 06:45;122,75
2016-04-01 07:00;111,85
2016-04-01 07:15;98,35
2016-04-01 07:30;89,25
2016-04-01 07:45;91,35
2016-04-01 08:00;147,05
2016-04-01 08:15;170,6
2016-04-01 08:30;133,85
2016-04-01 08:45;132,25
2016-04-01 09:00;123,35
2016-04-01 09:15;146,7
2016-04-01 09:30;134,65
2016-04-01 09:45;143,9
2016-04-01 10:00;134,05
2016-04-01 10:15;159,6
2016-04-01 10:30;153,3
2016-04-01 10:45;164,35
2016-04-01 11:00;153,65
2016-04-01 11:15;161,55
2016-04-01 11:30;152,85
2016-04-01 11:45;154,95
2016-04-01 12:00;143,7
2016-04-01 12:15;153,5
2016-04-01 12:30;145,4
2016-04-01 12:45;156,55
2016-04-01 13:00;154,2
2016-04-01 13:15;152,45
2016-04-01 13:30;170,4
2016-04-01 13:45;158,65
2016-04-01 14:00;153,6
2016-04-01 14:15;149,6
2016-04-01 14:30;147,45
2016-04-01 14:45;147,25
2016-04-01 15:00;148,05
2016-04-01 15:15;145,25
2016-04-01 15:30;147,95
2016-04-01 15:45;141,85
2016-04-01 16:00;141,25
2016-04-01 16:15;134,75
2016-04-01 16:30;135,85
2016-04-01 16:45;125,95
2016-04-01 17:00;125,15
2016-04-01 17:15;124,6
2016-04-01 17:30;123,7
2016-04-01 17:45;120,15
2016-04-01 18:00;118,55
2016-04-01 18:15;115,6
2016-04-01 18:30;118,2
2016-04-01 18:45;113,8
2016-04-01 19:00;116,85
2016-04-01 19:15;115,55
2016-04-01 19:30;124,7
2016-04-01 19:45;121,1
2016-04-01 20:00;124
2016-04-01 20:15;119,15
2016-04-01 20:30;121,9
2016-04-01 20:45;118,9
2016-04-01 21:00;113,65
2016-04-01 21:15;109,65
2016-04-01 21:30;102,7
2016-04-01 21:45;100,8
2016-04-01 22:00;96,1
2016-04-01 22:15;93,85
2016-04-01 22:30;93,2
2016-04-01 22:45;86,35
2016-04-01 23:00;83,95
2016-04-01 23:15;79,6
2016-04-01 23:30;76,35
2016-04-01 23:45;76,15
2016-04-02 00:00;76,3
2016-04-02 00:15;80,7
2016-04-02 00:30;82,1
2016-04-02 00:45;81,8
2016-04-02 01:00;82,35
2016-04-02 01:15;79,8
2016-04-02 01:30;79,65
2016-04-02 01:45;81
2016-04-02 02:00;76,8
2016-04-02 02:15;73,1
2016-04-02 02:30;72,45
2016-04-02 02:45;71,25
2016-04-02 03:00;71,3
2016-04-02 03:15;71,65
2016-04-02 03:30;71,7
2016-04-02 03:45;71,5
2016-04-02 04:00;75,15
2016-04-02 04:15;72,2
2016-04-02 04:30;73,6
2016-04-02 04:45;75,65
2016-04-02 05:00;74,4
2016-04-02 05:15;71,4
2016-04-02 05:30;74,2
2016-04-02 05:45;75,5
2016-04-02 06:00;76,25
2016-04-02 06:15;81,6
2016-04-02 06:30;81,75
2016-04-02 06:45;77,95
2016-04-02 07:00;75,8
2016-04-02 07:15;72,4
2016-04-02 07:30;68,9
2016-04-02 07:45;68,2
2016-04-02 08:00;73,05
2016-04-02 08:15;70,55
2016-04-02 08:30;66,2
2016-04-02 08:45;67,45
2016-04-02 09:00;67,05
2016-04-02 09:15;65,1
2016-04-02 09:30;66,55
2016-04-02 09:45;64,25
2016-04-02 10:00;67,15
2016-04-02 10:15;69,05
2016-04-02 10:30;74,9
2016-04-02 10:45;75,65
2016-04-02 11:00;74,2
2016-04-02 11:15;70,25
2016-04-02 11:30;74,5
2016-04-02 11:45;78,1
2016-04-02 12:00;79,4
2016-04-02 12:15;81,3
2016-04-02 12:30;77,7
2016-04-02 12:45;74,25
2016-04-02 13:00;73,6
2016-04-02 13:15;74,2
2016-04-02 13:30;73,05
2016-04-02 13:45;68,8
2016-04-02 14:00;68,95
2016-04-02 14:15;73,5
2016-04-02 14:30;69,55
2016-04-02 14:45;72,55
2016-04-02 15:00;72,25
2016-04-02 15:15;70,85
2016-04-02 15:30;74,05
2016-04-02 15:45;70,9
2016-04-02 16:00;72,7
2016-04-02 16:15;77
2016-04-02 16:30;75,85
2016-04-02 16:45;77
2016-04-02 17:00;73,95
2016-04-02 17:15;68,15
2016-04-02 17:30;69,45
2016-04-02 17:45;74,75
2016-04-02 18:00;72,8
2016-04-02 18:15;72,55
2016-04-02 18:30;74,95
2016-04-02 18:45;77,9
2016-04-02 19:00;74,3
2016-04-02 19:15;77,95
2016-04-02 19:30;81,35
2016-04-02 19:45;77,6
2016-04-02 20:00;80,85
2016-04-02 20:15;91,85
2016-04-02 20:30;94,05
2016-04-02 20:45;90,25
2016-04-02 21:00;93,7
2016-04-02 21:15;99,9
2016-04-02 21:30;99,65
2016-04-02 21:45;92,7
2016-04-02 22:00;81,85
2016-04-02 22:15;81,25
2016-04-02 22:30;80
2016-04-02 22:45;78,7
2016-04-02 23:00;77,3
2016-04-02 23:15;73,9
2016-04-02 23:30;75
2016-04-02 23:45;76,2
2016-04-03 00:00;76,2
2016-04-03 00:15;75,1
2016-04-03 00:30;74,6
2016-04-03 00:45;75
2016-04-03 01:00;0
2016-04-03 01:15;0
2016-04-03 01:30;0
2016-04-03 01:45;0
2016-04-03 02:00;0
2016-04-03 02:15;0
2016-04-03 02:30;0
2016-04-03 02:45;0
2016-04-03 03:00;0
2016-04-03 03:15;0
2016-04-03 03:30;0
2016-04-03 03:45;0
2016-04-03 04:00;0
2016-04-03 04:15;0
2016-04-03 04:30;0
2016-04-03 04:45;0
2016-04-03 05:00;0
2016-04-03 05:15;0
2016-04-03 05:30;0
2016-04-03 05:45;0
2016-04-03 06:00;0
2016-04-03 06:15;0
2016-04-03 06:30;0
2016-04-03 06:45;0
2016-04-03 07:00;0
2016-04-03 07:15;0
2016-04-03 07:30;0
2016-04-03 07:45;0
2016-04-03 08:00;0
2016-04-03 08:15;0
2016-04-03 08:30;0
2016-04-03 08:45;0
2016-04-03 09:00;0
2016-04-03 09:15;0
2016-04-03 09:30;0
2016-04-03 09:45;0
2016-04-03 10:00;0
2016-04-03 10:15;0
2016-04-03 10:30;0
2016-04-03 10:45;0
2016-04-03 11:00;0
2016-04-03 11:15;0
2016-04-03 11:30;0
2016-04-03 11:45;0
2016-04-03 12:00;0
2016-04-03 12:15;0
2016-04-03 12:30;0
2016-04-03 12:45;0
2016-04-03 13:00;0
2016-04-03 13:15;0
2016-04-03 13:30;0
2016-04-03 13:45;0
2016-04-03 14:00;0
2016-04-03 14:15;0
2016-04-03 14:30;0
2016-04-03 14:45;0
2016-04-03 15:00;0
2016-04-03 15:15;0
2016-04-03 15:30;0
2016-04-03 15:45;0
2016-04-03 16:00;0
2016-04-03 16:15;0
2016-04-03 16:30;0
2016-04-03 16:45;0
2016-04-03 17:00;0
2016-04-03 17:15;0
2016-04-03 17:30;0
2016-04-03 17:45;0
2016-04-03 18:00;0
2016-04-03 18:15;0
2016-04-03 18:30;0
2016-04-03 18:45;0
2016-04-03 19:00;0
2016-04-03 19:15;0
2016-04-03 19:30;0
2016-04-03 19:45;0
2016-04-03 20:00;0
2016-04-03 20:15;0
2016-04-03 20:30;0
2016-04-03 20:45;0
2016-04-03 21:00;0
2016-04-03 21:15;0
2016-04-03 21:30;0
2016-04-03 21:45;0
2016-04-03 22:00;0
2016-04-03 22:15;0
2016-04-03 22:30;0
2016-04-03 22:45;0
2016-04-03 23:00;0
2016-04-03 23:15;0
2016-04-03 23:30;0
2016-04-03 23:45;0

